CW1767 Weather Reports


Display with metric or nautical units.
time (UTC)temp
F
wind
direction
speed
MPH
gust
MPH
rain 1hr
in
rain 24hr
in
rain mn
in
humidity
%
barometer
mb
20260509203006 74 210 0.0 2.0 0.00 0.00 0.00 54 1008.5
20260509201504 74 184 0.0 1.0 0.00 0.00 0.00 55 1008.4
20260509200002 74 148 0.0 3.0 0.00 0.00 0.00 56 1009.0
20260509194610 74 200 0.0 2.0 0.00 0.00 0.00 61 1009.4
20260509193059 73 190 0.0 4.0 0.00 0.00 0.00 61 1009.7
20260509191603 73 194 0.0 2.0 0.00 0.00 0.00 59 1009.8
20260509190109 75 136 0.0 3.0 0.00 0.00 0.00 60 1009.8
20260509184554 74 113 0.0 2.0 0.00 0.00 0.00 61 1010.1
20260509183049 73 155 0.0 4.0 0.00 0.00 0.00 63 1010.1
20260509181546 72 126 0.0 3.0 0.00 0.00 0.00 65 1010.4
20260509180047 70 114 0.0 4.0 0.00 0.00 0.00 69 1010.4
20260509174543 69 107 0.0 3.0 0.00 0.00 0.00 71 1010.7
20260509173041 69 117 1.0 4.0 0.00 0.00 0.00 72 1010.7
20260509171545 69 123 0.0 4.0 0.00 0.00 0.00 70 1010.8
20260509170141 68 120 1.0 4.0 0.00 0.00 0.00 68 1010.8
20260509164547 69 126 0.0 3.0 0.00 0.00 0.00 70 1010.7
20260509163038 69 123 0.0 4.0 0.00 0.00 0.00 67 1010.8
20260509161537 70 144 0.0 2.0 0.00 0.00 0.00 64 1011.1
20260509160035 70 117 0.0 3.0 0.00 0.00 0.00 60 1011.0
20260509154533 70 125 0.0 5.0 0.00 0.00 0.00 60 1011.0
20260509153031 70 139 0.0 3.0 0.00 0.00 0.00 58 1011.6
20260509151528 70 124 1.0 3.0 0.00 0.00 0.00 58 1012.0
20260509150034 69 116 0.0 2.0 0.00 0.00 0.00 59 1012.1
20260509144531 68 149 0.0 3.0 0.00 0.00 0.00 60 1012.3
20260509143021 68 132 1.0 3.0 0.00 0.00 0.00 63 1012.3
20260509141522 67 158 0.0 2.0 0.00 0.00 0.00 64 1012.4
20260509140014 66 178 0.0 3.0 0.00 0.00 0.00 68 1012.3
20260509134513 66 117 0.0 3.0 0.00 0.00 0.00 69 1012.4
20260509133010 65 153 0.0 1.0 0.00 0.00 0.00 71 1012.5
20260509131509 64 130 0.0 6.0 0.00 0.00 0.00 74 1012.5
20260509130005 63 183 0.0 3.0 0.00 0.00 0.00 77 1012.5
20260509124602 62 127 0.0 1.0 0.00 0.00 0.00 80 1012.6
20260509123057 60 171 0.0 0.0 0.00 0.00 0.00 84 1012.7
20260509121554 59 141 0.0 1.0 0.00 0.00 0.00 87 1012.7
20260509120049 58 127 0.0 1.0 0.00 0.00 0.00 89 1013.0
20260509114547 56 132 0.0 1.0 0.00 0.00 0.00 90 1012.9
20260509113047 55 126 0.0 1.0 0.00 0.00 0.00 91 1013.1
20260509111539 53 127 0.0 0.0 0.00 0.00 0.00 91 1013.2
20260509110137 52 126 0.0 0.0 0.00 0.00 0.00 91 1013.2
20260509104537 51 126 0.0 0.0 0.00 0.00 0.00 90 1013.2
20260509103036 51 126 0.0 0.0 0.00 0.00 0.00 89 1013.1
20260509101547 51 126 0.0 0.0 0.00 0.00 0.00 89 1013.0
20260509100035 51 126 0.0 0.0 0.00 0.00 0.00 88 1013.0
20260509094535 51 126 0.0 0.0 0.00 0.00 0.00 88 1013.0
20260509093035 51 126 0.0 0.0 0.00 0.00 0.00 87 1012.8
20260509091533 52 126 0.0 0.0 0.00 0.00 0.00 87 1012.8
20260509090032 51 126 0.0 0.0 0.00 0.00 0.00 87 1012.7
20260509084531 51 126 0.0 0.0 0.00 0.00 0.00 87 1012.8
20260509083036 51 126 0.0 0.0 0.00 0.00 0.00 86 1012.9
20260509081532 51 126 0.0 0.0 0.00 0.00 0.00 85 1013.0
20260509080026 51 126 0.0 0.0 0.00 0.00 0.00 83 1013.0
20260509074526 51 126 0.0 0.0 0.00 0.00 0.00 82 1013.1
20260509073025 51 126 0.0 0.0 0.00 0.00 0.00 81 1013.2
20260509071524 51 126 0.0 0.0 0.00 0.00 0.00 81 1013.3
20260509070024 51 126 0.0 0.0 0.00 0.00 0.00 79 1013.3
20260509064523 51 126 0.0 0.0 0.00 0.00 0.00 78 1013.3
20260509063022 51 126 0.0 1.0 0.00 0.00 0.00 78 1013.4
20260509061520 51 126 0.0 0.0 0.00 0.00 0.00 77 1013.4
20260509060022 51 126 0.0 1.0 0.00 0.00 0.00 77 1013.4
20260509054519 51 126 0.0 0.0 0.00 0.00 0.00 76 1013.5
20260509053018 51 126 0.0 0.0 0.00 0.00 0.00 75 1013.5
20260509051518 51 126 0.0 0.0 0.00 0.00 0.00 74 1013.6
20260509050016 51 126 0.0 0.0 0.00 0.00 0.00 72 1013.6
20260509044512 52 126 0.0 0.0 0.00 0.00 0.00 71 1013.7
20260509043011 52 126 0.0 0.0 0.00 0.00 0.00 70 1013.7
20260509041508 53 126 0.0 0.0 0.00 0.00 0.00 68 1014.0
20260509040006 53 126 0.0 1.0 0.00 0.00 0.00 67 1014.2
20260509034521 53 127 0.0 1.0 0.00 0.00 0.00 67 1014.1
20260509033005 53 113 0.0 1.0 0.00 0.00 0.00 65 1014.1
20260509031507 54 113 0.0 1.0 0.00 0.00 0.00 64 1014.1
20260509030004 54 136 0.0 1.0 0.00 0.00 0.00 63 1014.0
20260509024504 54 136 0.0 1.0 0.00 0.00 0.00 62 1013.9
20260509023005 54 135 0.0 1.0 0.00 0.00 0.00 61 1014.1
20260509021502 55 136 0.0 1.0 0.00 0.00 0.00 60 1014.1
20260509020002 56 135 0.0 1.0 0.00 0.00 0.00 59 1014.0
20260509014502 56 135 0.0 1.0 0.00 0.00 0.00 59 1013.9
20260509013003 57 136 0.0 1.0 0.00 0.00 0.00 59 1013.9
20260509011501 58 136 0.0 1.0 0.00 0.00 0.00 58 1013.9
20260509010002 58 121 0.0 1.0 0.00 0.00 0.00 58 1013.5
20260509004622 59 119 0.0 3.0 0.00 0.00 0.00 57 1013.4
20260509003100 60 151 0.0 0.0 0.00 0.00 0.00 56 1013.2
20260509001559 60 160 0.0 1.0 0.00 0.00 0.00 53 1012.8
20260509000059 61 160 0.0 0.0 0.00 0.00 0.00 50 1013.1
20260508234606 62 166 0.0 0.0 0.00 0.00 0.00 49 1012.9
20260508233059 63 166 0.0 0.0 0.00 0.00 0.00 48 1012.8
20260508231559 63 114 0.0 1.0 0.00 0.00 0.00 45 1012.7
20260508230057 64 164 0.0 1.0 0.00 0.00 0.00 43 1012.7
20260508224558 64 119 1.0 3.0 0.00 0.00 0.00 42 1012.7
20260508223056 65 165 0.0 2.0 0.00 0.00 0.00 42 1012.7
20260508221555 65 188 0.0 3.0 0.00 0.00 0.00 41 1012.6
20260508220059 65 122 0.0 3.0 0.00 0.00 0.00 40 1012.7
20260508214607 65 128 0.0 6.0 0.00 0.08 0.00 39 1012.6
20260508213055 66 136 0.0 4.0 0.00 0.08 0.00 40 1012.6
20260508211555 66 155 0.0 3.0 0.00 0.08 0.00 40 1012.7
20260508210055 66 196 0.0 3.0 0.00 0.08 0.00 41 1012.8
20260508204554 66 140 0.0 4.0 0.00 0.13 0.00 41 1013.0